Location: Bettgenhausen
(50.6463°N, 7.5681°E)
Time: 10:23:25
(UTC+00:00)

GP-B - Pass Details

Date: 27 February 2020
Orbit: 631 x 636 km, 89.8° (Epoch: 04 April)

Event Time Altitude Azimuth Distance (km) Brightness Sun altitude
Exits shadow 19:01:29 30° 54° (NE) 1,146 4.0 -18.9°
Drops below altitude 10° 19:04:35 10° 15° (NNE) 2,036 5.7 -19.4°
Sets 19:06:58 0° 6° (N) 2,949 6.6 -19.8°
